Location: Litvinovka
(48.6667°N, 34.3500°E)
Time: 07:34:56
(UTC+00:00)

CZ-2C R/B - Pass Details

Date: 18 September 2020
Orbit: 704 x 907 km, 98.1° (Epoch: 22 October)

Event Time Altitude Azimuth Distance (km) Brightness Sun altitude
Rises 16:15:41 0° 158° (SSE) 3,248 5.9 -5.3°
Reaches altitude 10° 16:17:56 10° 156° (SSE) 2,353 5.2 -5.7°
Maximum altitude 16:23:08 74° 73° (ENE) 863 3.2 -6.5°
Drops below altitude 10° 16:28:40 10° 349° (N) 2,503 6.0 -7.4°
Sets 16:31:08 0° 348° (NNW) 3,470 6.7 -7.8°
